Flag for Germany Weather past 2 weeks in Seelze, Lower Saxony, Germany

Now
39 °F

Thunderstorms. Partly cloudy.


Feels Like: 31 °F
Forecast: 35 / 43 °F
Wind: 14 mph from West

Location: Hannover

Current Time: Mar 3, 2015 at 8:06:48 PM

Latest Report: Mar 3, 2015 at 7:20 PM


Visibility: 4 mi

Pressure: 29.89 "Hg

Humidity: 87%

Dew point: 36 °F

Location of SeelzeLocation

Historic Weather in Seelze — Graph

°F

Seelze temperature yesterday

Maximum temperature yesterday: 46 °F (at 2:50 PM)
Minimum temperature yesterday: 36 °F (at 7:50 PM)
Average temperature yesterday: 41 °F

Past Weeks' High & Low Weather Summary

 TemperatureHumidityPressure
High50 °F (Mar 1, 1:20 PM)100% (Feb 17, 3:50 AM)30.72 "Hg (Feb 17, 3:50 AM)
Low27 °F (Feb 17, 5:50 AM)46% (Feb 28, 3:50 PM)29.30 "Hg (Feb 21, 9:20 AM)
Average39 °F79%29.91 "Hg
* Reported Feb 16 6:20 PM — Mar 3 6:50 PM, Seelze, Weather by CustomWeather, © 2015

Note: Actual official high and low records may vary slightly from our data, if they occured in-between our weather recording intervals... More about our weather records

Advertising

Seelze weather history for previous 24 hours

 ConditionsComfort  
Time TempWeatherWind HumidityBarometerVisibility
6:50 PM
Tue, Mar 3
41 °FLight rain. Passing clouds.10 mph87%29.89 "HgN/A
6:20 PM41 °FLight rain. Passing clouds.13 mph87%29.89 "HgN/A
5:50 PM39 °FLight rain. Partly sunny.12 mph93%29.89 "HgN/A
5:20 PM39 °FLight rain. Partly sunny.10 mph93%29.89 "HgN/A
4:50 PM41 °FLight rain. Broken clouds.13 mph81%29.89 "HgN/A
4:20 PM41 °FLight rain. Broken clouds.12 mph81%29.89 "HgN/A
3:50 PM43 °FLight rain. Broken clouds.14 mph76%29.92 "HgN/A
3:20 PM43 °FLight rain. Broken clouds.9 mph76%29.92 "HgN/A
2:50 PM41 °FSprinkles. Broken clouds.12 mph81%29.92 "HgN/A
2:20 PM45 °FBroken clouds.14 mph66%29.95 "HgN/A
1:50 PM43 °FBroken clouds.15 mph71%29.95 "HgN/A
1:20 PM43 °FPartly sunny.9 mph76%29.98 "HgN/A
12:50 PM45 °FBroken clouds.15 mph66%29.98 "HgN/A
12:20 PM45 °FBroken clouds.16 mph66%29.98 "HgN/A
11:50 AM43 °FPartly sunny.16 mph71%29.98 "HgN/A
11:20 AM43 °FPartly sunny.16 mph71%29.98 "HgN/A
10:50 AM41 °FPartly sunny.17 mph76%30.01 "HgN/A
10:20 AM41 °FPartly sunny.17 mph76%30.01 "HgN/A
9:50 AM39 °FPartly sunny.15 mph75%30.01 "HgN/A
9:20 AM39 °FScattered clouds.15 mph81%29.98 "HgN/A
8:50 AM37 °FScattered clouds.14 mph81%29.98 "HgN/A
8:20 AM37 °FPassing clouds.15 mph81%29.98 "HgN/A
7:50 AM37 °FPassing clouds.12 mph81%29.98 "HgN/A
7:20 AM36 °FPassing clouds.13 mph81%29.95 "HgN/A
6:50 AM37 °FPassing clouds.13 mph75%29.95 "HgN/A
6:20 AM36 °FPassing clouds.10 mph81%29.95 "HgN/A
5:50 AM36 °FPassing clouds.13 mph81%29.95 "HgN/A
5:20 AM36 °FPassing clouds.12 mph81%29.95 "HgN/A
4:50 AM36 °FPassing clouds.13 mph81%29.92 "HgN/A
4:20 AM36 °FPassing clouds.14 mph81%29.92 "HgN/A
3:50 AM36 °FPassing clouds.14 mph81%29.92 "HgN/A
3:20 AM36 °FPassing clouds.14 mph81%29.89 "HgN/A
2:50 AM37 °FPassing clouds.16 mph75%29.89 "HgN/A
2:20 AM36 °FPassing clouds.16 mph81%29.89 "HgN/A
1:50 AM36 °FPassing clouds.16 mph87%29.86 "HgN/A
1:20 AM37 °FPassing clouds.18 mph81%29.83 "HgN/A
12:50 AM36 °FPassing clouds.17 mph87%29.83 "HgN/A
12:20 AM36 °FSprinkles. Partly cloudy.16 mph93%29.80 "HgN/A
11:50 PM
Mon, Mar 2
36 °FPassing clouds.16 mph87%29.80 "HgN/A
11:20 PM36 °FPassing clouds.16 mph87%29.80 "HgN/A
10:50 PM36 °FPassing clouds.20 mph87%29.77 "HgN/A
10:20 PM37 °FPassing clouds.18 mph81%29.74 "HgN/A
9:50 PM36 °FPassing clouds.10 mph87%29.74 "HgN/A
9:20 PM36 °FPassing clouds.9 mph87%29.74 "HgN/A
8:50 PM36 °FPartly cloudy.15 mph93%29.74 "HgN/A
8:20 PM36 °FSprinkles. Passing clouds.13 mph93%29.71 "HgN/A
Weather by CustomWeather, © 2015

See weather overviewHow to use our weather pages